Date,TemperatureHighF,TemperatureAvgF,TemperatureLowF,DewpointHighF,DewpointAvgF,DewpointLowF,HumidityHigh,HumidityAvg,HumidityLow,PressureMaxIn,PressureMinIn,WindSpeedMaxMPH,WindSpeedAvgMPH,GustSpeedMaxMPH,PrecipitationSumIn
2013-10-1,61,55,48,58,53,47,96,94,89,29.97,29.88,0,0,1,0.00
2013-10-2,71,59,48,63,55,47,98,88,73,29.95,29.86,6,1,13,0.00
2013-10-3,69,58,45,56,50,44,95,77,49,30.08,29.97,4,0,8,0.00
2013-10-4,63,58,51,61,56,50,97,95,92,30.04,29.98,0,0,2,0.61
2013-10-5,66,61,58,64,60,57,98,96,90,30.06,30.00,0,0,2,0.06
2013-10-6,61,56,53,60,55,52,98,97,96,30.10,30.02,1,0,6,0.10
2013-10-7,71,61,51,67,60,50,98,95,86,30.04,29.67,6,0,18,0.41
2013-10-8,59,52,41,51,44,39,97,74,50,30.33,29.87,7,1,16,0.04
2013-10-9,61,47,35,46,40,34,98,79,43,30.43,30.32,1,0,5,0.01
2013-10-10,57,47,38,47,42,37,97,84,56,30.33,30.15,0,0,2,0.00
2013-10-11,68,52,42,47,43,35,95,75,29,30.15,30.05,0,0,4,0.00
2013-10-12,65,54,46,54,49,43,91,83,67,30.31,30.11,4,0,7,0.00
2013-10-13,63,53,46,51,46,-100,93,81,62,30.37,30.30,2,0,7,0.00
2013-10-14,66,52,40,55,47,39,97,84,60,30.31,30.19,2,0,5,0.00
2013-10-15,64,59,55,57,55,51,95,87,78,30.22,30.08,0,0,2,0.00
2013-10-18,61,55,43,60,48,39,97,79,53,29.88,29.55,10,3,18,0.08
2013-10-19,62,49,36,49,41,35,97,76,50,29.92,29.69,1,0,5,0.01
2013-10-20,54,48,40,49,38,-100,92,72,52,29.98,29.65,10,3,18,0.01
2013-10-21,63,47,34,44,39,33,96,77,46,30.07,29.92,1,0,4,0.00
2013-10-22,53,45,39,51,42,34,96,89,76,29.92,29.69,7,0,13,0.10
2013-10-23,48,42,33,37,35,31,93,74,60,29.76,29.56,5,1,9,0.08
2013-10-24,46,41,35,38,33,30,91,73,53,29.87,29.65,10,3,16,0.01
2013-10-25,43,40,33,36,33,31,91,75,66,30.12,29.87,11,4,19,0.01
2013-10-26,48,41,31,35,32,29,95,71,49,30.11,29.80,4,0,19,0.00
2013-10-27,47,42,36,37,33,-100,87,71,59,30.02,29.75,9,2,16,0.01
2013-10-28,51,38,28,39,30,-100,96,79,55,30.30,30.03,10,2,17,0.01
2013-10-29,44,33,26,28,25,22,93,75,45,30.41,30.30,6,0,11,0.01
2013-10-30,51,38,29,41,34,25,94,85,67,30.33,30.16,0,0,4,0.03
2013-10-31,58,45,31,57,44,30,98,96,95,30.22,29.70,3,0,7,0.53